Time,TemperatureF,DewpointF,PressureIn,WindDirection,WindDirectionDegrees,WindSpeedMPH,WindSpeedGustMPH,Humidity,HourlyPrecipIn,Conditions,Clouds,dailyrainin,SoftwareType,DateUTC
2013-10-29 00:02:00,34.4,27.3,30.29,ENE,74,8.0,8.0,75,0.00,,,0.00,Wunderground v.1.15,2013-10-29 05:02:00,
2013-10-29 00:07:00,34.7,27.6,30.29,ENE,77,5.0,8.0,75,0.00,,,0.00,Wunderground v.1.15,2013-10-29 05:07:00,
2013-10-29 00:13:00,35.0,27.9,30.29,East,84,8.0,10.0,75,0.00,,,0.00,Wunderground v.1.15,2013-10-29 05:13:00,
2013-10-29 00:18:00,35.0,27.9,30.29,East,82,6.0,10.0,75,0.00,,,0.00,Wunderground v.1.15,2013-10-29 05:18:00,
2013-10-29 00:24:00,35.1,28.0,30.29,East,79,7.0,10.0,75,0.00,,,0.00,Wunderground v.1.15,2013-10-29 05:24:00,
2013-10-29 00:30:00,35.1,28.0,30.30,ENE,78,3.0,10.0,75,0.00,,,0.00,Wunderground v.1.15,2013-10-29 05:30:00,
2013-10-29 00:35:00,35.2,28.1,30.30,ENE,77,10.0,10.0,75,0.00,,,0.00,Wunderground v.1.15,2013-10-29 05:35:00,
2013-10-29 00:40:00,35.4,28.3,30.30,ENE,76,4.0,10.0,75,0.00,,,0.00,Wunderground v.1.15,2013-10-29 05:40:00,
2013-10-29 00:46:00,35.6,28.5,30.30,ENE,75,8.0,10.0,75,0.00,,,0.00,Wunderground v.1.15,2013-10-29 05:46:00,
2013-10-29 00:51:00,35.7,28.2,30.29,ENE,75,9.0,9.0,74,0.00,,,0.00,Wunderground v.1.15,2013-10-29 05:51:00,
2013-10-29 00:56:00,35.9,28.4,30.30,East,80,6.0,13.0,74,0.00,,,0.00,Wunderground v.1.15,2013-10-29 05:56:00,
2013-10-29 01:01:00,36.0,28.5,30.30,East,84,10.0,10.0,74,0.00,,,0.00,Wunderground v.1.15,2013-10-29 06:01:00,
2013-10-29 01:07:00,36.1,28.6,30.30,East,87,5.0,10.0,74,0.00,,,0.00,Wunderground v.1.15,2013-10-29 06:07:00,
2013-10-29 01:13:00,36.1,28.6,30.29,East,88,6.0,7.0,74,0.00,,,0.00,Wunderground v.1.15,2013-10-29 06:13:00,
2013-10-29 01:19:00,36.1,28.6,30.30,East,86,7.0,8.0,74,0.00,,,0.00,Wunderground v.1.15,2013-10-29 06:19:00,
2013-10-29 01:24:00,36.1,28.6,30.29,East,80,9.0,10.0,74,0.00,,,0.00,Wunderground v.1.15,2013-10-29 06:24:00,
2013-10-29 01:29:00,36.1,28.6,30.29,East,87,6.0,10.0,74,0.00,,,0.00,Wunderground v.1.15,2013-10-29 06:29:00,
2013-10-29 01:34:00,36.1,28.6,30.29,East,80,7.0,10.0,74,0.00,,,0.00,Wunderground v.1.15,2013-10-29 06:34:00,
2013-10-29 01:40:00,36.1,28.6,30.28,East,81,8.0,11.0,74,0.00,,,0.00,Wunderground v.1.15,2013-10-29 06:40:00,
2013-10-29 01:46:00,36.1,28.6,30.28,East,79,10.0,11.0,74,0.00,,,0.00,Wunderground v.1.15,2013-10-29 06:46:00,
2013-10-29 01:51:00,36.1,28.6,30.28,East,79,14.0,14.0,74,0.00,,,0.00,Wunderground v.1.15,2013-10-29 06:51:00,
2013-10-29 01:56:00,36.1,28.6,30.28,ENE,78,9.0,14.0,74,0.00,,,0.00,Wunderground v.1.15,2013-10-29 06:56:00,
2013-10-29 02:01:00,36.1,28.6,30.28,East,82,9.0,9.0,74,0.00,,,0.00,Wunderground v.1.15,2013-10-29 07:01:00,
2013-10-29 02:06:00,36.1,28.9,30.27,East,81,9.0,13.0,75,0.00,,,0.00,Wunderground v.1.15,2013-10-29 07:06:00,
2013-10-29 02:11:00,35.9,29.1,30.27,ENE,77,5.0,11.0,76,0.00,,,0.00,Wunderground v.1.15,2013-10-29 07:11:00,
2013-10-29 02:16:00,35.6,29.4,30.26,East,79,11.0,12.0,78,0.00,,,0.00,Wunderground v.1.15,2013-10-29 07:16:00,
2013-10-29 02:21:00,35.3,29.4,30.26,ENE,77,8.0,9.0,79,0.00,,,0.00,Wunderground v.1.15,2013-10-29 07:21:00,
2013-10-29 02:26:00,35.3,29.4,30.26,East,80,8.0,12.0,79,0.00,,,0.00,Wunderground v.1.15,2013-10-29 07:26:00,
2013-10-29 02:31:00,35.3,29.4,30.27,East,79,7.0,9.0,79,0.00,,,0.00,Wunderground v.1.15,2013-10-29 07:31:00,
2013-10-29 02:36:00,35.3,29.4,30.27,ENE,69,7.0,13.0,79,0.00,,,0.00,Wunderground v.1.15,2013-10-29 07:36:00,
2013-10-29 02:41:00,35.3,29.7,30.27,ENE,73,3.0,6.0,80,0.00,,,0.00,Wunderground v.1.15,2013-10-29 07:41:00,
2013-10-29 02:46:00,35.3,29.7,30.27,ENE,68,7.0,10.0,80,0.00,,,0.00,Wunderground v.1.15,2013-10-29 07:46:00,
2013-10-29 02:51:00,35.3,29.7,30.27,ENE,71,4.0,10.0,80,0.00,,,0.00,Wunderground v.1.15,2013-10-29 07:51:00,
2013-10-29 02:56:00,35.2,29.6,30.27,ENE,62,7.0,10.0,80,0.00,,,0.00,Wunderground v.1.15,2013-10-29 07:56:00,
2013-10-29 03:01:00,35.0,29.8,30.28,ENE,61,3.0,10.0,81,0.00,,,0.00,Wunderground v.1.15,2013-10-29 08:01:00,
2013-10-29 03:07:00,34.9,29.7,30.27,ENE,63,8.0,11.0,81,0.00,,,0.00,Wunderground v.1.15,2013-10-29 08:07:00,
2013-10-29 03:12:00,34.8,29.9,30.27,ENE,60,9.0,10.0,82,0.00,,,0.00,Wunderground v.1.15,2013-10-29 08:12:00,
2013-10-29 03:17:00,34.6,29.7,30.27,ENE,70,12.0,12.0,82,0.00,,,0.00,Wunderground v.1.15,2013-10-29 08:17:00,
2013-10-29 03:22:00,34.5,29.9,30.26,ENE,59,7.0,9.0,83,0.00,,,0.01,Wunderground v.1.15,2013-10-29 08:22:00,
2013-10-29 03:27:00,34.4,29.8,30.26,ENE,71,10.0,11.0,83,0.00,,,0.01,Wunderground v.1.15,2013-10-29 08:27:00,
2013-10-29 03:32:00,34.4,30.1,30.26,ENE,64,8.0,12.0,84,0.00,,,0.01,Wunderground v.1.15,2013-10-29 08:32:00,
2013-10-29 03:37:00,34.4,30.1,30.26,ENE,62,8.0,15.0,84,0.00,,,0.01,Wunderground v.1.15,2013-10-29 08:37:00,
2013-10-29 03:42:00,34.3,30.0,30.26,ENE,60,8.0,12.0,84,0.00,,,0.01,Wunderground v.1.15,2013-10-29 08:42:00,
2013-10-29 03:47:00,34.3,30.0,30.26,ENE,63,7.0,12.0,84,0.00,,,0.01,Wunderground v.1.15,2013-10-29 08:47:00,
2013-10-29 03:52:00,34.2,29.9,30.25,ENE,71,11.0,12.0,84,0.00,,,0.01,Wunderground v.1.15,2013-10-29 08:52:00,
2013-10-29 03:57:00,34.1,29.8,30.25,ENE,63,9.0,12.0,84,0.00,,,0.01,Wunderground v.1.15,2013-10-29 08:57:00,
2013-10-29 04:02:00,34.1,29.8,30.26,ENE,58,10.0,12.0,84,0.00,,,0.01,Wunderground v.1.15,2013-10-29 09:02:00,
2013-10-29 04:07:00,34.0,29.7,30.26,NE,55,5.0,12.0,84,0.00,,,0.01,Wunderground v.1.15,2013-10-29 09:07:00,
2013-10-29 04:12:00,33.9,29.6,30.25,NE,51,4.0,9.0,84,0.00,,,0.01,Wunderground v.1.15,2013-10-29 09:12:00,
2013-10-29 04:17:00,33.9,29.6,30.26,NE,48,4.0,13.0,84,0.00,,,0.01,Wunderground v.1.15,2013-10-29 09:17:00,
2013-10-29 04:22:00,33.9,29.6,30.26,NE,48,4.0,6.0,84,0.00,,,0.01,Wunderground v.1.15,2013-10-29 09:22:00,
2013-10-29 04:27:00,33.9,29.6,30.26,NE,56,5.0,9.0,84,0.00,,,0.01,Wunderground v.1.15,2013-10-29 09:27:00,
2013-10-29 04:32:00,33.9,29.6,30.26,NE,56,5.0,7.0,84,0.00,,,0.01,Wunderground v.1.15,2013-10-29 09:32:00,
2013-10-29 04:37:00,33.9,29.6,30.26,NE,56,3.0,7.0,84,0.00,,,0.01,Wunderground v.1.15,2013-10-29 09:37:00,
2013-10-29 04:42:00,33.6,29.3,30.25,NE,56,6.0,8.0,84,0.00,,,0.01,Wunderground v.1.15,2013-10-29 09:42:00,
2013-10-29 04:47:00,33.4,29.1,30.25,NE,53,7.0,12.0,84,0.00,,,0.01,Wunderground v.1.15,2013-10-29 09:47:00,
2013-10-29 04:52:00,33.2,29.2,30.25,NE,53,7.0,9.0,85,0.00,,,0.01,Wunderground v.1.15,2013-10-29 09:52:00,
2013-10-29 04:57:00,33.1,29.1,30.25,NE,53,7.0,9.0,85,0.00,,,0.02,Wunderground v.1.15,2013-10-29 09:57:00,
2013-10-29 05:03:00,33.0,29.0,30.24,NE,55,9.0,11.0,85,0.00,,,0.02,Wunderground v.1.15,2013-10-29 10:03:00,
2013-10-29 05:08:00,33.0,29.3,30.24,NE,55,7.0,13.0,86,0.00,,,0.02,Wunderground v.1.15,2013-10-29 10:08:00,
2013-10-29 05:13:00,33.0,29.3,30.24,ENE,63,5.0,9.0,86,0.00,,,0.02,Wunderground v.1.15,2013-10-29 10:13:00,
2013-10-29 05:18:00,33.2,29.5,30.24,ENE,67,9.0,11.0,86,0.00,,,0.02,Wunderground v.1.15,2013-10-29 10:18:00,
2013-10-29 05:23:00,33.3,29.6,30.24,ENE,69,10.0,10.0,86,0.00,,,0.02,Wunderground v.1.15,2013-10-29 10:23:00,
2013-10-29 05:28:00,33.3,29.6,30.24,East,84,6.0,11.0,86,0.00,,,0.02,Wunderground v.1.15,2013-10-29 10:28:00,
2013-10-29 05:33:00,33.5,29.8,30.24,ENE,68,8.0,10.0,86,0.00,,,0.02,Wunderground v.1.15,2013-10-29 10:33:00,
2013-10-29 05:38:00,33.5,29.8,30.23,ENE,69,10.0,13.0,86,0.00,,,0.02,Wunderground v.1.15,2013-10-29 10:38:00,
2013-10-29 05:43:00,33.5,29.8,30.23,ENE,63,5.0,12.0,86,0.00,,,0.02,Wunderground v.1.15,2013-10-29 10:43:00,
2013-10-29 05:48:00,33.4,29.7,30.24,ENE,76,8.0,12.0,86,0.00,,,0.02,Wunderground v.1.15,2013-10-29 10:48:00,
2013-10-29 05:53:00,33.4,29.7,30.24,ENE,67,8.0,12.0,86,0.00,,,0.02,Wunderground v.1.15,2013-10-29 10:53:00,
2013-10-29 05:58:00,33.4,29.7,30.24,ENE,65,10.0,12.0,86,0.00,,,0.02,Wunderground v.1.15,2013-10-29 10:58:00,
2013-10-29 06:03:00,33.4,29.7,30.24,ENE,61,12.0,12.0,86,0.00,,,0.02,Wunderground v.1.15,2013-10-29 11:03:00,
2013-10-29 06:08:00,33.3,29.6,30.23,NE,55,10.0,13.0,86,0.00,,,0.02,Wunderground v.1.15,2013-10-29 11:08:00,
2013-10-29 06:13:00,33.3,29.6,30.24,ENE,63,8.0,12.0,86,0.00,,,0.02,Wunderground v.1.15,2013-10-29 11:13:00,
2013-10-29 06:18:00,33.3,29.6,30.24,NE,55,9.0,12.0,86,0.00,,,0.02,Wunderground v.1.15,2013-10-29 11:18:00,
2013-10-29 06:23:00,33.3,29.6,30.24,NE,56,9.0,11.0,86,0.00,,,0.02,Wunderground v.1.15,2013-10-29 11:23:00,
2013-10-29 06:28:00,33.3,29.6,30.23,ENE,64,5.0,12.0,86,0.00,,,0.02,Wunderground v.1.15,2013-10-29 11:28:00,
2013-10-29 06:33:00,33.3,29.6,30.24,ENE,61,7.0,10.0,86,0.00,,,0.02,Wunderground v.1.15,2013-10-29 11:33:00,
2013-10-29 06:38:00,33.3,29.6,30.23,ENE,65,4.0,11.0,86,0.00,,,0.02,Wunderground v.1.15,2013-10-29 11:38:00,
2013-10-29 06:43:00,33.4,29.7,30.23,ENE,60,10.0,12.0,86,0.00,,,0.02,Wunderground v.1.15,2013-10-29 11:43:00,
2013-10-29 06:48:00,33.4,29.7,30.23,ENE,66,7.0,12.0,86,0.00,,,0.02,Wunderground v.1.15,2013-10-29 11:48:00,
2013-10-29 06:53:00,33.5,29.8,30.23,ENE,69,8.0,11.0,86,0.00,,,0.02,Wunderground v.1.15,2013-10-29 11:53:00,
2013-10-29 06:58:00,33.5,29.8,30.22,ENE,71,7.0,11.0,86,0.00,,,0.02,Wunderground v.1.15,2013-10-29 11:58:00,
2013-10-29 07:03:00,33.6,29.9,30.22,ENE,69,5.0,12.0,86,0.00,,,0.02,Wunderground v.1.15,2013-10-29 12:03:00,
2013-10-29 07:08:00,33.6,29.9,30.22,ENE,75,7.0,12.0,86,0.00,,,0.02,Wunderground v.1.15,2013-10-29 12:08:00,
2013-10-29 07:14:00,33.7,30.0,30.22,ENE,75,5.0,12.0,86,0.00,,,0.02,Wunderground v.1.15,2013-10-29 12:14:00,
2013-10-29 07:19:00,33.7,30.0,30.22,ENE,63,5.0,13.0,86,0.00,,,0.02,Wunderground v.1.15,2013-10-29 12:19:00,
2013-10-29 07:24:00,33.6,29.9,30.22,ENE,78,7.0,12.0,86,0.00,,,0.02,Wunderground v.1.15,2013-10-29 12:24:00,
2013-10-29 07:29:00,33.6,29.9,30.21,ENE,77,12.0,14.0,86,0.00,,,0.02,Wunderground v.1.15,2013-10-29 12:29:00,
2013-10-29 07:34:00,33.6,29.9,30.22,ENE,68,8.0,11.0,86,0.00,,,0.02,Wunderground v.1.15,2013-10-29 12:34:00,
2013-10-29 07:39:00,33.6,29.9,30.22,ENE,64,8.0,11.0,86,0.00,,,0.02,Wunderground v.1.15,2013-10-29 12:39:00,
2013-10-29 07:44:00,33.7,30.0,30.22,ENE,64,9.0,10.0,86,0.00,,,0.02,Wunderground v.1.15,2013-10-29 12:44:00,
2013-10-29 07:49:00,33.7,30.0,30.21,ENE,76,7.0,11.0,86,0.00,,,0.02,Wunderground v.1.15,2013-10-29 12:49:00,
2013-10-29 07:54:00,33.7,30.0,30.21,ENE,71,8.0,10.0,86,0.00,,,0.02,Wunderground v.1.15,2013-10-29 12:54:00,
2013-10-29 07:59:00,33.8,30.3,30.22,ENE,76,5.0,10.0,87,0.00,,,0.02,Wunderground v.1.15,2013-10-29 12:59:00,
2013-10-29 08:04:00,33.8,30.3,30.22,ENE,71,8.0,8.0,87,0.00,,,0.02,Wunderground v.1.15,2013-10-29 13:04:00,
2013-10-29 08:09:00,33.9,30.4,30.21,East,88,5.0,10.0,87,0.00,,,0.02,Wunderground v.1.15,2013-10-29 13:09:00,
2013-10-29 08:15:00,34.1,30.6,30.21,ENE,72,4.0,11.0,87,0.00,,,0.02,Wunderground v.1.15,2013-10-29 13:15:00,
2013-10-29 08:20:00,34.4,30.9,30.21,ENE,73,8.0,14.0,87,0.00,,,0.02,Wunderground v.1.15,2013-10-29 13:20:00,
2013-10-29 08:25:00,34.4,30.9,30.21,East,81,10.0,13.0,87,0.00,,,0.02,Wunderground v.1.15,2013-10-29 13:25:00,
2013-10-29 08:30:00,34.5,31.0,30.21,East,84,5.0,13.0,87,0.00,,,0.02,Wunderground v.1.15,2013-10-29 13:30:00,
2013-10-29 08:35:00,34.8,31.3,30.21,East,84,9.0,15.0,87,0.00,,,0.02,Wunderground v.1.15,2013-10-29 13:35:00,
2013-10-29 08:40:00,35.0,31.5,30.21,East,80,6.0,15.0,87,0.00,,,0.02,Wunderground v.1.15,2013-10-29 13:40:00,
2013-10-29 08:45:00,35.0,31.5,30.20,East,82,8.0,13.0,87,0.00,,,0.02,Wunderground v.1.15,2013-10-29 13:45:00,
2013-10-29 08:50:00,35.0,31.5,30.21,East,85,7.0,13.0,87,0.00,,,0.02,Wunderground v.1.15,2013-10-29 13:50:00,
2013-10-29 08:55:00,35.1,31.6,30.21,ENE,71,8.0,12.0,87,0.00,,,0.02,Wunderground v.1.15,2013-10-29 13:55:00,
2013-10-29 09:00:00,35.2,31.4,30.21,ENE,76,3.0,8.0,86,0.00,,,0.02,Wunderground v.1.15,2013-10-29 14:00:00,
2013-10-29 09:05:00,35.3,31.5,30.20,East,99,5.0,13.0,86,0.00,,,0.02,Wunderground v.1.15,2013-10-29 14:05:00,
2013-10-29 09:10:00,35.5,31.7,30.20,ESE,103,7.0,8.0,86,0.00,,,0.02,Wunderground v.1.15,2013-10-29 14:10:00,
2013-10-29 09:15:00,35.7,31.9,30.20,East,97,7.0,13.0,86,0.00,,,0.02,Wunderground v.1.15,2013-10-29 14:15:00,
2013-10-29 09:20:00,35.8,32.0,30.20,East,96,5.0,8.0,86,0.00,,,0.02,Wunderground v.1.15,2013-10-29 14:20:00,
2013-10-29 09:25:00,36.1,32.3,30.19,East,101,10.0,16.0,86,0.00,,,0.02,Wunderground v.1.15,2013-10-29 14:25:00,
2013-10-29 09:30:00,36.3,32.5,30.19,ESE,107,8.0,9.0,86,0.00,,,0.02,Wunderground v.1.15,2013-10-29 14:30:00,
2013-10-29 09:35:00,36.5,32.4,30.19,East,101,8.0,16.0,85,0.00,,,0.02,Wunderground v.1.15,2013-10-29 14:35:00,
2013-10-29 09:40:00,36.6,32.5,30.19,ESE,103,9.0,12.0,85,0.00,,,0.02,Wunderground v.1.15,2013-10-29 14:40:00,
2013-10-29 09:45:00,36.7,32.6,30.20,ESE,103,7.0,14.0,85,0.00,,,0.02,Wunderground v.1.15,2013-10-29 14:45:00,
2013-10-29 09:50:00,36.8,32.7,30.20,East,88,6.0,8.0,85,0.00,,,0.02,Wunderground v.1.15,2013-10-29 14:50:00,
2013-10-29 09:55:00,36.9,32.8,30.20,East,98,5.0,13.0,85,0.00,,,0.02,Wunderground v.1.15,2013-10-29 14:55:00,
2013-10-29 10:00:00,37.0,32.9,30.19,East,96,5.0,7.0,85,0.00,,,0.02,Wunderground v.1.15,2013-10-29 15:00:00,
2013-10-29 10:05:00,37.0,32.9,30.19,East,92,8.0,14.0,85,0.00,,,0.02,Wunderground v.1.15,2013-10-29 15:05:00,
2013-10-29 10:10:00,37.1,33.0,30.19,East,88,8.0,8.0,85,0.00,,,0.02,Wunderground v.1.15,2013-10-29 15:10:00,
2013-10-29 10:15:00,37.2,33.1,30.19,East,84,6.0,10.0,85,0.00,,,0.02,Wunderground v.1.15,2013-10-29 15:15:00,
2013-10-29 10:20:00,37.3,33.2,30.19,East,87,6.0,7.0,85,0.00,,,0.02,Wunderground v.1.15,2013-10-29 15:20:00,
2013-10-29 10:25:00,37.3,32.9,30.18,East,92,6.0,9.0,84,0.00,,,0.02,Wunderground v.1.15,2013-10-29 15:25:00,
2013-10-29 10:30:00,37.5,33.1,30.18,East,99,9.0,9.0,84,0.00,,,0.02,Wunderground v.1.15,2013-10-29 15:30:00,
2013-10-29 10:35:00,37.7,33.3,30.18,East,101,11.0,12.0,84,0.00,,,0.02,Wunderground v.1.15,2013-10-29 15:35:00,
2013-10-29 10:40:00,37.8,33.4,30.17,ESE,111,8.0,8.0,84,0.00,,,0.02,Wunderground v.1.15,2013-10-29 15:40:00,
2013-10-29 10:46:00,38.0,33.6,30.17,ESE,102,9.0,11.0,84,0.00,,,0.02,Wunderground v.1.15,2013-10-29 15:46:00,
2013-10-29 10:51:00,38.3,33.9,30.18,East,96,7.0,9.0,84,0.00,,,0.02,Wunderground v.1.15,2013-10-29 15:51:00,
2013-10-29 10:56:00,38.3,33.6,30.17,ESE,105,1.0,14.0,83,0.00,,,0.02,Wunderground v.1.15,2013-10-29 15:56:00,
2013-10-29 11:01:00,38.5,33.8,30.17,East,94,10.0,13.0,83,0.00,,,0.02,Wunderground v.1.15,2013-10-29 16:01:00,
2013-10-29 11:06:00,38.6,33.9,30.16,ESE,102,8.0,15.0,83,0.00,,,0.02,Wunderground v.1.15,2013-10-29 16:06:00,
2013-10-29 11:11:00,38.7,34.0,30.17,ESE,103,10.0,11.0,83,0.00,,,0.02,Wunderground v.1.15,2013-10-29 16:11:00,
2013-10-29 11:16:00,38.8,34.1,30.17,ESE,103,7.0,14.0,83,0.00,,,0.02,Wunderground v.1.15,2013-10-29 16:16:00,
2013-10-29 11:21:00,38.8,33.8,30.17,ESE,106,7.0,9.0,82,0.00,,,0.02,Wunderground v.1.15,2013-10-29 16:21:00,
2013-10-29 11:26:00,38.8,33.8,30.17,ESE,118,8.0,11.0,82,0.00,,,0.02,Wunderground v.1.15,2013-10-29 16:26:00,
2013-10-29 11:31:00,38.8,33.8,30.16,East,99,11.0,11.0,82,0.00,,,0.02,Wunderground v.1.15,2013-10-29 16:31:00,
2013-10-29 11:36:00,39.1,34.4,30.16,ESE,114,7.0,11.0,83,0.00,,,0.02,Wunderground v.1.15,2013-10-29 16:36:00,
2013-10-29 11:41:00,39.3,34.3,30.16,East,101,7.0,9.0,82,0.00,,,0.02,Wunderground v.1.15,2013-10-29 16:41:00,
2013-10-29 11:46:00,39.2,34.2,30.16,East,96,5.0,13.0,82,0.00,,,0.02,Wunderground v.1.15,2013-10-29 16:46:00,
2013-10-29 11:51:00,39.1,34.1,30.17,ESE,118,5.0,8.0,82,0.00,,,0.02,Wunderground v.1.15,2013-10-29 16:51:00,
2013-10-29 11:56:00,39.1,34.1,30.17,ESE,111,3.0,9.0,82,0.00,,,0.02,Wunderground v.1.15,2013-10-29 16:56:00,
2013-10-29 12:01:00,39.3,34.3,30.17,ESE,111,3.0,9.0,82,0.00,,,0.02,Wunderground v.1.15,2013-10-29 17:01:00,
2013-10-29 12:06:00,39.6,34.6,30.16,ESE,119,10.0,13.0,82,0.00,,,0.02,Wunderground v.1.15,2013-10-29 17:06:00,
2013-10-29 12:11:00,39.8,34.8,30.16,ESE,122,5.0,9.0,82,0.00,,,0.02,Wunderground v.1.15,2013-10-29 17:11:00,
2013-10-29 12:16:00,39.9,34.9,30.15,SE,144,10.0,11.0,82,0.00,,,0.02,Wunderground v.1.15,2013-10-29 17:16:00,
2013-10-29 12:21:00,40.1,34.7,30.14,ESE,107,10.0,10.0,81,0.00,,,0.02,Wunderground v.1.15,2013-10-29 17:21:00,
2013-10-29 12:26:00,40.1,34.7,30.15,ESE,107,10.0,12.0,81,0.00,,,0.02,Wunderground v.1.15,2013-10-29 17:26:00,
2013-10-29 12:32:00,40.3,34.9,30.15,ESE,108,4.0,8.0,81,0.00,,,0.02,Wunderground v.1.15,2013-10-29 17:32:00,
2013-10-29 12:37:00,40.5,35.1,30.14,ESE,111,7.0,10.0,81,0.00,,,0.02,Wunderground v.1.15,2013-10-29 17:37:00,
2013-10-29 12:42:00,40.4,35.0,30.13,ESE,106,8.0,12.0,81,0.00,,,0.02,Wunderground v.1.15,2013-10-29 17:42:00,
2013-10-29 12:47:00,40.6,35.2,30.13,ESE,104,8.0,12.0,81,0.00,,,0.02,Wunderground v.1.15,2013-10-29 17:47:00,
2013-10-29 12:52:00,41.1,35.7,30.13,ESE,110,10.0,10.0,81,0.00,,,0.02,Wunderground v.1.15,2013-10-29 17:52:00,
2013-10-29 12:57:00,41.2,35.5,30.13,East,99,5.0,10.0,80,0.00,,,0.02,Wunderground v.1.15,2013-10-29 17:57:00,
2013-10-29 13:02:00,41.3,35.6,30.13,ESE,109,4.0,9.0,80,0.00,,,0.02,Wunderground v.1.15,2013-10-29 18:02:00,
2013-10-29 13:08:00,41.5,35.8,30.13,ESE,107,8.0,10.0,80,0.00,,,0.02,Wunderground v.1.15,2013-10-29 18:08:00,
2013-10-29 13:13:00,41.6,35.9,30.12,ESE,119,3.0,8.0,80,0.00,,,0.02,Wunderground v.1.15,2013-10-29 18:13:00,
2013-10-29 13:18:00,41.6,35.9,30.12,ESE,110,5.0,8.0,80,0.00,,,0.02,Wunderground v.1.15,2013-10-29 18:18:00,
2013-10-29 13:23:00,41.7,36.0,30.12,ESE,123,5.0,10.0,80,0.00,,,0.02,Wunderground v.1.15,2013-10-29 18:23:00,
2013-10-29 13:28:00,41.8,36.1,30.12,SE,124,4.0,10.0,80,0.00,,,0.02,Wunderground v.1.15,2013-10-29 18:28:00,
2013-10-29 13:33:00,42.0,36.3,30.11,SE,125,4.0,9.0,80,0.00,,,0.02,Wunderground v.1.15,2013-10-29 18:33:00,
2013-10-29 13:38:00,42.3,36.6,30.11,ESE,123,4.0,9.0,80,0.00,,,0.02,Wunderground v.1.15,2013-10-29 18:38:00,
2013-10-29 13:43:00,42.6,36.9,30.11,ESE,122,3.0,8.0,80,0.00,,,0.02,Wunderground v.1.15,2013-10-29 18:43:00,
2013-10-29 13:48:00,42.4,36.3,30.11,ESE,121,0.0,8.0,79,0.00,,,0.02,Wunderground v.1.15,2013-10-29 18:48:00,
2013-10-29 13:54:00,42.3,36.3,30.10,ESE,119,5.0,8.0,79,0.00,,,0.02,Wunderground v.1.15,2013-10-29 18:54:00,
2013-10-29 13:59:00,42.4,36.3,30.11,ESE,119,2.0,8.0,79,0.00,,,0.02,Wunderground v.1.15,2013-10-29 18:59:00,
2013-10-29 14:04:00,42.8,36.7,30.10,ESE,115,4.0,7.0,79,0.00,,,0.02,Wunderground v.1.15,2013-10-29 19:04:00,
2013-10-29 14:09:00,42.9,36.5,30.10,ESE,115,3.0,7.0,78,0.00,,,0.02,Wunderground v.1.15,2013-10-29 19:09:00,
2013-10-29 14:14:00,43.2,37.1,30.09,ESE,114,5.0,8.0,79,0.00,,,0.02,Wunderground v.1.15,2013-10-29 19:14:00,
2013-10-29 14:19:00,43.2,37.1,30.09,ESE,112,3.0,8.0,79,0.00,,,0.02,Wunderground v.1.15,2013-10-29 19:19:00,
2013-10-29 14:24:00,43.2,37.4,30.09,ESE,111,7.0,7.0,80,0.00,,,0.02,Wunderground v.1.15,2013-10-29 19:24:00,
2013-10-29 14:29:00,43.1,37.3,30.08,ESE,111,1.0,8.0,80,0.00,,,0.02,Wunderground v.1.15,2013-10-29 19:29:00,
2013-10-29 14:34:00,43.4,37.6,30.08,East,88,5.0,9.0,80,0.00,,,0.02,Wunderground v.1.15,2013-10-29 19:34:00,
2013-10-29 14:39:00,43.8,37.7,30.08,East,79,8.0,10.0,79,0.00,,,0.02,Wunderground v.1.15,2013-10-29 19:39:00,
2013-10-29 14:44:00,43.8,37.7,30.07,East,80,8.0,9.0,79,0.00,,,0.02,Wunderground v.1.15,2013-10-29 19:44:00,
2013-10-29 14:49:00,43.9,37.5,30.07,ENE,75,3.0,9.0,78,0.00,,,0.02,Wunderground v.1.15,2013-10-29 19:49:00,
2013-10-29 14:54:00,44.3,37.9,30.07,ENE,78,8.0,10.0,78,0.00,,,0.02,Wunderground v.1.15,2013-10-29 19:54:00,
2013-10-29 14:59:00,44.8,38.4,30.07,ENE,76,9.0,10.0,78,0.00,,,0.02,Wunderground v.1.15,2013-10-29 19:59:00,
2013-10-29 15:04:00,45.1,38.3,30.07,ENE,75,8.0,9.0,77,0.00,,,0.02,Wunderground v.1.15,2013-10-29 20:04:00,
2013-10-29 15:09:00,45.0,37.9,30.06,ENE,74,7.0,10.0,76,0.00,,,0.02,Wunderground v.1.15,2013-10-29 20:09:00,
2013-10-29 15:14:00,45.0,37.9,30.06,East,80,6.0,10.0,76,0.00,,,0.02,Wunderground v.1.15,2013-10-29 20:14:00,
2013-10-29 15:19:00,45.1,38.0,30.06,East,80,8.0,10.0,76,0.00,,,0.02,Wunderground v.1.15,2013-10-29 20:19:00,
2013-10-29 15:24:00,45.1,38.0,30.06,East,79,8.0,10.0,76,0.00,,,0.02,Wunderground v.1.15,2013-10-29 20:24:00,
2013-10-29 15:30:00,45.2,38.1,30.05,ENE,72,7.0,11.0,76,0.00,,,0.02,Wunderground v.1.15,2013-10-29 20:30:00,
2013-10-29 15:35:00,45.4,38.3,30.05,ENE,75,4.0,10.0,76,0.00,,,0.02,Wunderground v.1.15,2013-10-29 20:35:00,
2013-10-29 15:40:00,45.4,38.3,30.05,ENE,71,5.0,10.0,76,0.00,,,0.02,Wunderground v.1.15,2013-10-29 20:40:00,
2013-10-29 15:45:00,45.0,38.2,30.05,ENE,76,5.0,11.0,77,0.00,,,0.02,Wunderground v.1.15,2013-10-29 20:45:00,
2013-10-29 15:50:00,45.0,38.6,30.05,ENE,78,3.0,11.0,78,0.00,,,0.02,Wunderground v.1.15,2013-10-29 20:50:00,
2013-10-29 15:55:00,45.1,38.6,30.05,East,79,3.0,7.0,78,0.00,,,0.02,Wunderground v.1.15,2013-10-29 20:55:00,
2013-10-29 16:00:00,45.3,38.8,30.05,East,79,6.0,8.0,78,0.00,,,0.02,Wunderground v.1.15,2013-10-29 21:00:00,
2013-10-29 16:05:00,45.5,39.4,30.04,East,79,9.0,9.0,79,0.00,,,0.02,Wunderground v.1.15,2013-10-29 21:05:00,
2013-10-29 16:10:00,45.4,39.3,30.05,East,79,7.0,9.0,79,0.00,,,0.02,Wunderground v.1.15,2013-10-29 21:10:00,
2013-10-29 16:15:00,45.3,39.2,30.05,East,79,5.0,8.0,79,0.00,,,0.02,Wunderground v.1.15,2013-10-29 21:15:00,
2013-10-29 16:20:00,45.1,39.0,30.05,East,79,3.0,6.0,79,0.00,,,0.02,Wunderground v.1.15,2013-10-29 21:20:00,
2013-10-29 16:25:00,45.1,39.3,30.04,East,79,6.0,8.0,80,0.00,,,0.02,Wunderground v.1.15,2013-10-29 21:25:00,
2013-10-29 16:30:00,45.1,39.3,30.04,East,79,7.0,7.0,80,0.00,,,0.02,Wunderground v.1.15,2013-10-29 21:30:00,
2013-10-29 16:35:00,45.2,39.4,30.03,ENE,78,4.0,8.0,80,0.00,,,0.02,Wunderground v.1.15,2013-10-29 21:35:00,
2013-10-29 16:40:00,45.0,39.5,30.03,ENE,76,4.0,5.0,81,0.00,,,0.03,Wunderground v.1.15,2013-10-29 21:40:00,
2013-10-29 16:45:00,44.7,39.5,30.04,ENE,76,1.0,5.0,82,0.12,,,0.04,Wunderground v.1.15,2013-10-29 21:45:00,
2013-10-29 16:50:00,44.5,39.7,30.03,ENE,76,3.0,3.0,83,0.08,,,0.05,Wunderground v.1.15,2013-10-29 21:50:00,
2013-10-29 16:55:00,44.3,39.8,30.02,ENE,76,4.0,7.0,84,0.12,,,0.06,Wunderground v.1.15,2013-10-29 21:55:00,
2013-10-29 17:00:00,44.1,39.9,30.02,ENE,76,5.0,7.0,85,0.16,,,0.08,Wunderground v.1.15,2013-10-29 22:00:00,
2013-10-29 17:05:00,44.1,40.2,30.02,ENE,76,1.0,7.0,86,0.21,,,0.09,Wunderground v.1.15,2013-10-29 22:05:00,
2013-10-29 17:10:00,44.1,40.2,30.02,ENE,76,2.0,3.0,86,0.09,,,0.10,Wunderground v.1.15,2013-10-29 22:10:00,
2013-10-29 17:15:00,44.0,40.1,30.02,ENE,76,0.0,3.0,86,0.09,,,0.10,Wunderground v.1.15,2013-10-29 22:15:00,
2013-10-29 17:20:00,44.0,40.4,30.02,ENE,76,3.0,3.0,87,0.09,,,0.11,Wunderground v.1.15,2013-10-29 22:20:00,
2013-10-29 17:25:00,44.0,40.4,30.01,ENE,76,3.0,5.0,87,0.06,,,0.11,Wunderground v.1.15,2013-10-29 22:25:00,
2013-10-29 17:30:00,44.1,40.5,30.02,ENE,76,2.0,3.0,87,0.04,,,0.11,Wunderground v.1.15,2013-10-29 22:30:00,
2013-10-29 17:35:00,44.1,40.5,30.02,ENE,76,0.0,3.0,87,0.00,,,0.11,Wunderground v.1.15,2013-10-29 22:35:00,
2013-10-29 17:40:00,44.1,40.8,30.02,ENE,76,0.0,0.0,88,0.00,,,0.11,Wunderground v.1.15,2013-10-29 22:40:00,
2013-10-29 17:45:00,44.1,40.8,30.02,ENE,76,0.0,0.0,88,0.00,,,0.11,Wunderground v.1.15,2013-10-29 22:45:00,
2013-10-29 17:50:00,44.0,40.7,30.02,ENE,76,0.0,0.0,88,0.00,,,0.11,Wunderground v.1.15,2013-10-29 22:50:00,
2013-10-29 17:55:00,43.9,40.6,30.02,ENE,76,0.0,0.0,88,0.00,,,0.11,Wunderground v.1.15,2013-10-29 22:55:00,
2013-10-29 18:00:00,43.8,40.5,30.03,ENE,76,0.0,0.0,88,0.00,,,0.11,Wunderground v.1.15,2013-10-29 23:00:00,
2013-10-29 18:05:00,43.8,40.5,30.03,ENE,76,0.0,0.0,88,0.00,,,0.11,Wunderground v.1.15,2013-10-29 23:05:00,
2013-10-29 18:10:00,43.8,40.5,30.03,ENE,76,0.0,0.0,88,0.00,,,0.11,Wunderground v.1.15,2013-10-29 23:10:00,
2013-10-29 18:15:00,43.8,40.5,30.02,ENE,76,1.0,2.0,88,0.00,,,0.11,Wunderground v.1.15,2013-10-29 23:15:00,
2013-10-29 18:21:00,43.7,40.7,30.02,ENE,76,1.0,1.0,89,0.00,,,0.12,Wunderground v.1.15,2013-10-29 23:21:00,
2013-10-29 18:26:00,43.6,40.6,30.02,ENE,76,0.0,2.0,89,0.00,,,0.12,Wunderground v.1.15,2013-10-29 23:26:00,
2013-10-29 18:31:00,43.5,40.5,30.02,ENE,76,2.0,2.0,89,0.00,,,0.12,Wunderground v.1.15,2013-10-29 23:31:00,
2013-10-29 18:36:00,43.5,40.5,30.01,ENE,76,3.0,5.0,89,0.00,,,0.12,Wunderground v.1.15,2013-10-29 23:36:00,
2013-10-29 18:41:00,43.4,40.4,30.01,East,84,7.0,7.0,89,0.00,,,0.12,Wunderground v.1.15,2013-10-29 23:41:00,
2013-10-29 18:47:00,43.6,40.6,30.01,East,92,5.0,10.0,89,0.00,,,0.12,Wunderground v.1.15,2013-10-29 23:47:00,
2013-10-29 18:52:00,43.8,40.8,30.01,East,94,3.0,5.0,89,0.00,,,0.12,Wunderground v.1.15,2013-10-29 23:52:00,
2013-10-29 18:57:00,43.7,40.7,30.02,East,97,7.0,10.0,89,0.00,,,0.13,Wunderground v.1.15,2013-10-29 23:57:00,
2013-10-29 19:02:00,43.7,40.7,30.02,East,97,3.0,6.0,89,0.00,,,0.13,Wunderground v.1.15,2013-10-30 00:02:00,
2013-10-29 19:07:00,43.7,40.7,30.02,East,97,3.0,7.0,89,0.00,,,0.13,Wunderground v.1.15,2013-10-30 00:07:00,
2013-10-29 19:12:00,43.6,40.6,30.02,East,97,3.0,7.0,89,0.00,,,0.13,Wunderground v.1.15,2013-10-30 00:12:00,
2013-10-29 19:17:00,43.6,40.6,30.02,East,97,0.0,7.0,89,0.00,,,0.13,Wunderground v.1.15,2013-10-30 00:17:00,
2013-10-29 19:22:00,43.5,40.5,30.03,East,96,3.0,5.0,89,0.00,,,0.14,Wunderground v.1.15,2013-10-30 00:22:00,
2013-10-29 19:27:00,43.5,40.5,30.03,East,96,0.0,5.0,89,0.00,,,0.14,Wunderground v.1.15,2013-10-30 00:27:00,
2013-10-29 19:32:00,43.4,40.4,30.03,East,97,0.0,3.0,89,0.00,,,0.14,Wunderground v.1.15,2013-10-30 00:32:00,
2013-10-29 19:37:00,43.4,40.4,30.02,East,97,2.0,5.0,89,0.00,,,0.14,Wunderground v.1.15,2013-10-30 00:37:00,
2013-10-29 19:42:00,43.4,40.7,30.02,East,96,2.0,3.0,90,0.00,,,0.14,Wunderground v.1.15,2013-10-30 00:42:00,
2013-10-29 19:47:00,43.4,40.7,30.02,East,96,2.0,6.0,90,0.00,,,0.15,Wunderground v.1.15,2013-10-30 00:47:00,
2013-10-29 19:52:00,43.4,40.7,30.02,East,97,3.0,5.0,90,0.00,,,0.15,Wunderground v.1.15,2013-10-30 00:52:00,
2013-10-29 19:57:00,43.4,40.7,30.02,East,96,2.0,6.0,90,0.00,,,0.15,Wunderground v.1.15,2013-10-30 00:57:00,
2013-10-29 20:02:00,43.4,40.7,30.02,East,97,5.0,5.0,90,0.00,,,0.15,Wunderground v.1.15,2013-10-30 01:02:00,
2013-10-29 20:07:00,43.3,40.6,30.02,East,96,0.0,5.0,90,0.00,,,0.15,Wunderground v.1.15,2013-10-30 01:07:00,
2013-10-29 20:12:00,43.3,40.6,30.02,East,96,3.0,3.0,90,0.00,,,0.15,Wunderground v.1.15,2013-10-30 01:12:00,
2013-10-29 20:17:00,43.3,40.6,30.02,East,97,2.0,5.0,90,0.00,,,0.15,Wunderground v.1.15,2013-10-30 01:17:00,
2013-10-29 20:22:00,43.2,40.5,30.02,East,97,3.0,6.0,90,0.00,,,0.15,Wunderground v.1.15,2013-10-30 01:22:00,
2013-10-29 20:27:00,43.2,40.8,30.02,East,97,3.0,6.0,91,0.00,,,0.15,Wunderground v.1.15,2013-10-30 01:27:00,
2013-10-29 20:32:00,43.2,40.5,30.02,East,96,2.0,5.0,90,0.00,,,0.15,Wunderground v.1.15,2013-10-30 01:32:00,
2013-10-29 20:37:00,43.1,40.7,30.02,East,97,2.0,6.0,91,0.00,,,0.15,Wunderground v.1.15,2013-10-30 01:37:00,
2013-10-29 20:42:00,43.1,40.7,30.02,East,96,5.0,6.0,91,0.00,,,0.15,Wunderground v.1.15,2013-10-30 01:42:00,
2013-10-29 20:47:00,43.1,40.7,30.02,East,96,2.0,6.0,91,0.00,,,0.15,Wunderground v.1.15,2013-10-30 01:47:00,
2013-10-29 20:52:00,43.1,40.7,30.01,East,97,5.0,7.0,91,0.00,,,0.15,Wunderground v.1.15,2013-10-30 01:52:00,
2013-10-29 20:57:00,43.2,40.8,30.01,East,97,5.0,7.0,91,0.00,,,0.15,Wunderground v.1.15,2013-10-30 01:57:00,
2013-10-29 21:02:00,43.2,40.8,30.01,East,97,5.0,7.0,91,0.00,,,0.15,Wunderground v.1.15,2013-10-30 02:02:00,
2013-10-29 21:07:00,43.3,40.8,30.01,East,97,6.0,7.0,91,0.00,,,0.15,Wunderground v.1.15,2013-10-30 02:07:00,
2013-10-29 21:12:00,43.3,40.8,30.01,East,96,2.0,4.0,91,0.00,,,0.15,Wunderground v.1.15,2013-10-30 02:12:00,
2013-10-29 21:17:00,43.4,40.9,30.01,East,97,3.0,7.0,91,0.00,,,0.15,Wunderground v.1.15,2013-10-30 02:17:00,
2013-10-29 21:22:00,43.4,40.9,30.01,East,96,3.0,6.0,91,0.00,,,0.15,Wunderground v.1.15,2013-10-30 02:22:00,
2013-10-29 21:27:00,43.4,40.9,30.01,East,97,3.0,6.0,91,0.00,,,0.15,Wunderground v.1.15,2013-10-30 02:27:00,
2013-10-29 21:32:00,43.5,41.0,30.01,East,96,2.0,5.0,91,0.00,,,0.15,Wunderground v.1.15,2013-10-30 02:32:00,
2013-10-29 21:38:00,43.5,41.0,30.01,East,96,2.0,5.0,91,0.00,,,0.15,Wunderground v.1.15,2013-10-30 02:38:00,
2013-10-29 21:43:00,43.5,41.0,30.00,East,96,2.0,2.0,91,0.00,,,0.15,Wunderground v.1.15,2013-10-30 02:43:00,
2013-10-29 21:48:00,43.6,41.1,30.01,East,97,0.0,2.0,91,0.00,,,0.15,Wunderground v.1.15,2013-10-30 02:48:00,
2013-10-29 21:53:00,43.6,41.1,30.01,East,96,0.0,0.0,91,0.00,,,0.15,Wunderground v.1.15,2013-10-30 02:53:00,
2013-10-29 21:58:00,43.6,41.4,30.01,East,97,0.0,0.0,92,0.00,,,0.15,Wunderground v.1.15,2013-10-30 02:58:00,
2013-10-29 22:03:00,43.6,41.4,30.01,East,96,0.0,0.0,92,0.00,,,0.15,Wunderground v.1.15,2013-10-30 03:03:00,
2013-10-29 22:08:00,43.7,41.5,30.00,East,96,0.0,0.0,92,0.00,,,0.15,Wunderground v.1.15,2013-10-30 03:08:00,
2013-10-29 22:13:00,43.7,41.5,30.00,East,97,0.0,0.0,92,0.00,,,0.15,Wunderground v.1.15,2013-10-30 03:13:00,
2013-10-29 22:18:00,43.7,41.5,30.01,East,96,0.0,0.0,92,0.00,,,0.15,Wunderground v.1.15,2013-10-30 03:18:00,
2013-10-29 22:24:00,43.7,41.5,30.01,East,97,2.0,2.0,92,0.00,,,0.15,Wunderground v.1.15,2013-10-30 03:24:00,
2013-10-29 22:29:00,43.7,41.5,30.01,East,97,0.0,3.0,92,0.00,,,0.15,Wunderground v.1.15,2013-10-30 03:29:00,
2013-10-29 22:34:00,43.8,41.6,30.01,East,97,0.0,0.0,92,0.00,,,0.15,Wunderground v.1.15,2013-10-30 03:34:00,
2013-10-29 22:39:00,43.7,41.5,30.01,East,96,0.0,0.0,92,0.00,,,0.15,Wunderground v.1.15,2013-10-30 03:39:00,
2013-10-29 22:44:00,43.7,41.5,30.01,East,97,0.0,0.0,92,0.00,,,0.15,Wunderground v.1.15,2013-10-30 03:44:00,
2013-10-29 22:49:00,43.7,41.5,30.01,East,96,0.0,0.0,92,0.00,,,0.15,Wunderground v.1.15,2013-10-30 03:49:00,
2013-10-29 22:54:00,43.8,41.6,30.02,East,97,0.0,0.0,92,0.00,,,0.15,Wunderground v.1.15,2013-10-30 03:54:00,
2013-10-29 22:59:00,43.7,41.5,30.01,East,97,2.0,3.0,92,0.00,,,0.15,Wunderground v.1.15,2013-10-30 03:59:00,
2013-10-29 23:01:00,43.8,41.6,30.01,East,96,0.0,1.0,92,0.00,,,0.15,Wunderground v.1.15,2013-10-30 04:01:00,
2013-10-29 23:02:00,43.8,41.6,30.01,East,97,0.0,1.0,92,0.00,,,0.15,Wunderground v.1.15,2013-10-30 04:02:00,
2013-10-29 23:07:00,43.8,41.6,30.01,East,97,0.0,1.0,92,0.00,,,0.15,Wunderground v.1.15,2013-10-30 04:07:00,
2013-10-29 23:13:00,43.8,41.6,30.01,East,96,0.0,3.0,92,0.00,,,0.15,Wunderground v.1.15,2013-10-30 04:13:00,
2013-10-29 23:18:00,43.8,41.6,30.01,East,97,0.0,3.0,92,0.00,,,0.15,Wunderground v.1.15,2013-10-30 04:18:00,
2013-10-29 23:23:00,43.8,41.6,30.01,East,97,0.0,3.0,92,0.00,,,0.15,Wunderground v.1.15,2013-10-30 04:23:00,
2013-10-29 23:28:00,43.7,41.5,30.01,East,97,0.0,3.0,92,0.00,,,0.16,Wunderground v.1.15,2013-10-30 04:28:00,
2013-10-29 23:33:00,43.7,41.5,30.01,East,96,0.0,0.0,92,0.00,,,0.16,Wunderground v.1.15,2013-10-30 04:33:00,
2013-10-29 23:38:00,43.7,41.5,30.01,East,97,0.0,0.0,92,0.00,,,0.16,Wunderground v.1.15,2013-10-30 04:38:00,
2013-10-29 23:43:00,43.7,41.5,30.01,East,96,5.0,5.0,92,0.00,,,0.16,Wunderground v.1.15,2013-10-30 04:43:00,
2013-10-29 23:48:00,43.6,41.4,30.00,East,96,1.0,5.0,92,0.00,,,0.16,Wunderground v.1.15,2013-10-30 04:48:00,
2013-10-29 23:53:00,43.7,41.5,30.00,East,97,2.0,5.0,92,0.00,,,0.17,Wunderground v.1.15,2013-10-30 04:53:00,
2013-10-29 23:58:00,43.7,41.5,30.00,East,96,0.0,5.0,92,0.00,,,0.17,Wunderground v.1.15,2013-10-30 04:58:00,